Location: Azul
(36.7830°S, 59.8500°W)
Time: 09:16:32
(UTC-03:00)

DOVE 4 - Pass Details

Date: 26 October 2021
Orbit: 588 x 799 km, 97.8° (Epoch: 07 December)

Event Time Altitude Azimuth Distance (km) Brightness Sun altitude
Exits shadow 23:58:31 20° 164° (SSE) 1,805 ? -39.3°
Drops below altitude 10° 00:00:18 10° 175° (S) 2,405 ? -39.4°
Sets 00:02:49 0° 182° (S) 3,343 ? -39.5°
